FW0664 Weather Reports


Display with metric or nautical units.
time (UTC)temp
F
wind
direction
speed
MPH
gust
MPH
rain 1hr
in
rain 24hr
in
rain mn
in
humidity
%
barometer
mb
20181216073904 32 194 0.0 0.0 0.00 0.00 0.00 65 1023.0
20181216073404 32 194 0.0 0.0 0.00 0.00 0.00 65 1023.0
20181216072904 32 194 0.0 0.0 0.00 0.00 0.00 64 1023.0
20181216072404 31 194 0.0 0.0 0.00 0.00 0.00 64 1023.2
20181216071904 31 194 0.0 0.0 0.00 0.00 0.00 64 1023.2
20181216071403 31 194 0.0 0.0 0.00 0.00 0.00 63 1023.2
20181216070904 31 194 0.0 0.0 0.00 0.00 0.00 62 1023.2
20181216070404 32 194 0.0 0.0 0.00 0.00 0.00 62 1023.2
20181216065904 32 194 0.0 0.0 0.00 0.00 0.00 62 1023.2
20181216065404 32 194 0.0 0.0 0.00 0.00 0.00 61 1023.2
20181216064904 32 194 0.0 0.0 0.00 0.00 0.00 60 1023.2
20181216064403 32 194 0.0 0.0 0.00 0.00 0.00 60 1023.2
20181216063904 33 194 0.0 0.0 0.00 0.00 0.00 60 1022.8
20181216063404 33 194 0.0 0.0 0.00 0.00 0.00 60 1022.8
20181216062904 34 194 0.0 0.0 0.00 0.00 0.00 59 1022.8
20181216062404 34 194 0.0 0.0 0.00 0.00 0.00 58 1022.4
20181216061903 35 194 0.0 0.0 0.00 0.00 0.00 57 1022.4
20181216061404 35 194 0.0 0.0 0.00 0.00 0.00 56 1022.4
20181216060904 34 194 0.0 0.0 0.00 0.00 0.00 56 1023.9
20181216060403 34 194 0.0 0.0 0.00 0.00 0.00 56 1023.9
20181216055904 33 194 0.0 0.0 0.00 0.00 0.00 59 1023.9
20181216055403 33 194 0.0 0.0 0.00 0.00 0.00 60 1023.8
20181216054903 33 194 0.0 0.0 0.00 0.00 0.00 60 1023.8
20181216054404 33 194 0.0 0.0 0.00 0.00 0.00 60 1023.8
20181216053904 33 194 0.0 0.0 0.00 0.00 0.00 60 1023.1
20181216053403 34 194 0.0 0.0 0.00 0.00 0.00 60 1023.1
20181216052903 34 194 0.0 0.0 0.00 0.00 0.00 60 1023.1
20181216052404 34 194 0.0 0.0 0.00 0.00 0.00 60 1023.1
20181216051904 34 194 0.0 0.0 0.00 0.00 0.00 60 1023.1
20181216051403 34 194 0.0 0.0 0.00 0.00 0.00 60 1023.1
20181216050903 34 194 0.0 0.0 0.00 0.00 0.00 60 1025.1
20181216050403 34 194 0.0 0.0 0.00 0.00 0.00 60 1025.1
20181216045902 34 194 0.0 0.0 0.00 0.00 0.00 59 1025.1
20181216045402 35 194 0.0 0.0 0.00 0.00 0.00 59 1024.6
20181216044903 35 194 0.0 0.0 0.00 0.00 0.00 60 1024.6
20181216044403 35 194 0.0 0.0 0.00 0.00 0.00 60 1024.6
20181216043903 35 194 0.0 0.0 0.00 0.00 0.00 59 1024.6
20181216043402 35 194 0.0 0.0 0.00 0.00 0.00 58 1024.6
20181216042902 35 194 0.0 0.0 0.00 0.00 0.00 59 1024.6
20181216042403 35 194 0.0 0.0 0.00 0.00 0.00 59 1024.5
20181216041903 35 194 0.0 0.0 0.00 0.00 0.00 62 1024.5
20181216041402 35 194 0.0 0.0 0.00 0.00 0.00 57 1024.5
20181216040903 35 194 0.0 0.0 0.00 0.00 0.00 58 1025.4
20181216040403 36 194 0.0 0.0 0.00 0.00 0.00 59 1025.4
20181216035903 35 194 0.0 0.0 0.00 0.00 0.00 58 1025.4
20181216035403 35 194 0.0 0.0 0.00 0.00 0.00 58 1025.1
20181216034903 35 194 0.0 0.0 0.00 0.00 0.00 58 1025.1
20181216034402 36 194 0.0 0.0 0.00 0.00 0.00 57 1025.1
20181216033902 36 194 0.0 0.0 0.00 0.00 0.00 55 1025.0
20181216033403 36 194 0.0 0.0 0.00 0.00 0.00 55 1025.0
20181216032903 36 194 0.0 0.0 0.00 0.00 0.00 56 1025.0
20181216032403 36 194 0.0 0.0 0.00 0.00 0.00 56 1025.0
20181216031903 36 194 0.0 0.0 0.00 0.00 0.00 55 1025.0
20181216031403 36 194 0.0 0.0 0.00 0.00 0.00 54 1025.0
20181216030903 36 194 0.0 0.0 0.00 0.00 0.00 53 1025.5
20181216030403 37 194 0.0 0.0 0.00 0.00 0.00 53 1025.5
20181216025902 37 194 0.0 0.0 0.00 0.00 0.00 52 1025.5
20181216025403 37 194 0.0 0.0 0.00 0.00 0.00 52 1025.5
20181216024903 37 194 0.0 0.0 0.00 0.00 0.00 50 1025.5
20181216024403 37 194 0.0 0.0 0.00 0.00 0.00 52 1025.5
20181216023903 37 194 0.0 0.0 0.00 0.00 0.00 51 1025.1
20181216023403 37 194 0.0 0.0 0.00 0.00 0.00 53 1025.1
20181216022903 37 194 0.0 0.0 0.00 0.00 0.00 54 1025.1
20181216022403 37 194 0.0 0.0 0.00 0.00 0.00 53 1024.6
20181216021903 38 194 0.0 0.0 0.00 0.00 0.00 52 1024.6
20181216021403 38 194 0.0 0.0 0.00 0.00 0.00 52 1024.6
20181216020902 39 194 0.0 0.0 0.00 0.00 0.00 51 1022.9
20181216020403 39 194 0.0 0.0 0.00 0.00 0.00 49 1022.9
20181216015902 40 194 0.0 0.0 0.00 0.00 0.00 47 1022.9
20181216015403 40 194 0.0 0.0 0.00 0.00 0.00 44 1022.8
20181216014903 41 194 0.0 0.0 0.00 0.00 0.00 43 1022.8
20181216014404 41 194 0.0 0.0 0.00 0.00 0.00 42 1022.8
20181216013904 41 194 0.0 0.0 0.00 0.00 0.00 41 1022.7
20181216013403 41 194 0.0 0.0 0.00 0.00 0.00 40 1022.7
20181216012903 41 194 0.0 0.0 0.00 0.00 0.00 42 1022.7
20181216012403 41 194 0.0 0.0 0.00 0.00 0.00 43 1021.9
20181216011903 42 194 0.0 0.0 0.00 0.00 0.00 42 1021.9
20181216011403 42 194 0.0 0.0 0.00 0.00 0.00 42 1021.9
20181216010904 42 194 0.0 0.0 0.00 0.00 0.00 43 1021.1
20181216010403 42 194 0.0 0.0 0.00 0.00 0.00 42 1021.1
20181216005903 42 194 0.0 0.0 0.00 0.00 0.00 42 1021.1
20181216005403 43 194 0.0 0.0 0.00 0.00 0.00 42 1020.7
20181216004902 43 194 0.0 0.0 0.00 0.00 0.00 43 1020.7
20181216004403 44 194 0.0 0.0 0.00 0.00 0.00 40 1020.7
20181216003903 44 194 0.0 0.0 0.00 0.00 0.00 38 1019.8
20181216003403 44 194 0.0 0.0 0.00 0.00 0.00 36 1019.8
20181216002903 45 194 0.0 0.0 0.00 0.00 0.00 36 1019.8
20181216002404 46 194 0.0 0.0 0.00 0.00 0.00 37 1019.1
20181216001903 46 194 0.0 0.0 0.00 0.00 0.00 33 1019.1
20181216001403 47 194 0.0 0.0 0.00 0.00 0.00 31 1019.1
20181216000903 47 194 0.0 0.0 0.00 0.00 0.00 28 1019.6
20181216000403 48 194 0.0 0.0 0.00 0.00 0.00 28 1019.6
20181215235903 48 194 0.0 2.0 0.00 0.00 0.00 28 1019.6
20181215235403 48 194 0.0 1.0 0.00 0.00 0.00 27 1019.0
20181215234904 49 194 0.0 0.0 0.00 0.00 0.00 28 1019.0
20181215234403 49 194 0.0 0.0 0.00 0.00 0.00 27 1019.0
20181215233903 49 194 0.0 1.0 0.00 0.00 0.00 29 1018.9
20181215233403 49 194 0.0 0.0 0.00 0.00 0.00 27 1018.9
20181215232904 49 194 0.0 0.0 0.00 0.00 0.00 29 1018.9
20181215232403 50 194 0.0 0.0 0.00 0.00 0.00 29 1018.2
20181215231903 51 194 1.0 3.0 0.00 0.00 0.00 27 1018.2
20181215231403 51 198 0.0 3.0 0.00 0.00 0.00 28 1018.2
20181215230904 52 195 1.0 6.0 0.00 0.00 0.00 27 1017.5
20181215230403 52 189 4.0 9.0 0.00 0.00 0.00 24 1017.5
20181215225904 53 206 0.0 7.0 0.00 0.00 0.00 26 1017.5
20181215225403 53 245 1.0 5.0 0.00 0.00 0.00 25 1017.5
20181215224903 53 153 0.0 3.0 0.00 0.00 0.00 27 1017.5
20181215224404 53 153 0.0 1.0 0.00 0.00 0.00 25 1017.5
20181215223903 53 153 0.0 7.0 0.00 0.00 0.00 25 1016.8
20181215223403 53 231 5.0 9.0 0.00 0.00 0.00 24 1016.8
20181215222904 54 267 3.0 10.0 0.00 0.00 0.00 25 1016.8
20181215222403 54 306 0.0 2.0 0.00 0.00 0.00 24 1016.8
20181215221903 54 307 0.0 0.0 0.00 0.00 0.00 25 1016.8
20181215221404 54 307 0.0 3.0 0.00 0.00 0.00 25 1016.8
20181215220903 54 309 2.0 5.0 0.00 0.00 0.00 24 1016.8
20181215220403 54 318 1.0 6.0 0.00 0.00 0.00 24 1016.8
20181215215904 54 278 1.0 3.0 0.00 0.00 0.00 25 1016.8
20181215215403 54 291 5.0 10.0 0.00 0.00 0.00 23 1016.8
20181215214903 55 295 2.0 7.0 0.00 0.00 0.00 22 1016.8
20181215214404 54 311 0.0 7.0 0.00 0.00 0.00 24 1016.8
20181215213903 54 145 0.0 3.0 0.00 0.00 0.00 24 1016.7
20181215213404 54 196 1.0 3.0 0.00 0.00 0.00 24 1016.7
20181215212904 54 307 1.0 7.0 0.00 0.00 0.00 23 1016.7
20181215212404 53 184 0.0 2.0 0.00 0.00 0.00 25 1016.7
20181215211903 53 174 1.0 9.0 0.00 0.00 0.00 25 1016.7
20181215211403 53 166 3.0 7.0 0.00 0.00 0.00 24 1016.7
20181215210903 53 176 0.0 0.0 0.00 0.00 0.00 23 1016.9
20181215210404 53 176 3.0 9.0 0.00 0.00 0.00 24 1016.9
20181215205904 53 100 3.0 7.0 0.00 0.00 0.00 23 1016.9
20181215205403 54 117 1.0 5.0 0.00 0.00 0.00 24 1016.9
20181215204904 54 165 0.0 3.0 0.00 0.00 0.00 24 1016.9
20181215204404 54 165 1.0 6.0 0.00 0.00 0.00 23 1016.9
20181215203904 54 167 0.0 0.0 0.00 0.00 0.00 22 1017.1
20181215203403 54 167 0.0 1.0 0.00 0.00 0.00 22 1017.1
20181215202903 54 167 0.0 3.0 0.00 0.00 0.00 23 1017.1
20181215202404 54 169 0.0 0.0 0.00 0.00 0.00 24 1017.4
20181215201903 53 169 0.0 0.0 0.00 0.00 0.00 25 1017.4
20181215201403 53 169 4.0 7.0 0.00 0.00 0.00 24 1017.4
20181215200904 54 169 0.0 5.0 0.00 0.00 0.00 23 1017.5
20181215200403 53 169 1.0 7.0 0.00 0.00 0.00 22 1017.5
20181215195903 53 169 0.0 6.0 0.00 0.00 0.00 26 1017.5
20181215195403 53 169 5.0 7.0 0.00 0.00 0.00 22 1017.2
20181215194903 53 171 1.0 3.0 0.00 0.00 0.00 23 1017.2
20181215194403 53 169 6.0 12.0 0.00 0.00 0.00 23 1017.2
20181215193903 54 1 0.0 3.0 0.00 0.00 0.00 23 1017.6
20181215193403 54 1 0.0 5.0 0.00 0.00 0.00 26 1017.6
20181215192903 54 6 0.0 6.0 0.00 0.00 0.00 23 1017.6
20181215192403 54 332 0.0 6.0 0.00 0.00 0.00 23 1018.1
20181215191903 54 297 1.0 6.0 0.00 0.00 0.00 23 1018.1
20181215191403 54 322 0.0 5.0 0.00 0.00 0.00 26 1018.1
20181215190903 53 316 2.0 5.0 0.00 0.00 0.00 24 1018.8
20181215190404 53 302 0.0 1.0 0.00 0.00 0.00 26 1018.8
20181215185903 53 302 0.0 0.0 0.00 0.00 0.00 25 1018.8
20181215185403 52 302 0.0 1.0 0.00 0.00 0.00 24 1019.6
20181215184903 52 302 0.0 3.0 0.00 0.00 0.00 25 1019.6
20181215184403 51 302 0.0 3.0 0.00 0.00 0.00 24 1019.6
20181215183903 51 302 3.0 6.0 0.00 0.00 0.00 23 1019.6
20181215183403 51 198 0.0 1.0 0.00 0.00 0.00 27 1019.6
20181215182903 51 198 0.0 0.0 0.00 0.00 0.00 27 1019.6
20181215182403 51 198 0.0 0.0 0.00 0.00 0.00 29 1019.6
20181215181903 50 198 2.0 3.0 0.00 0.00 0.00 26 1019.6
20181215181403 50 198 0.0 0.0 0.00 0.00 0.00 31 1019.6
20181215180904 50 198 0.0 0.0 0.00 0.00 0.00 32 1020.3
20181215180403 50 198 0.0 0.0 0.00 0.00 0.00 31 1020.3
20181215175903 50 198 0.0 0.0 0.00 0.00 0.00 28 1020.3
20181215175403 49 198 0.0 0.0 0.00 0.00 0.00 25 1020.8
20181215174903 49 198 0.0 0.0 0.00 0.00 0.00 26 1020.8
20181215174404 49 198 0.0 0.0 0.00 0.00 0.00 28 1020.8
20181215173904 48 198 0.0 0.0 0.00 0.00 0.00 28 1020.6
20181215173403 48 198 0.0 0.0 0.00 0.00 0.00 28 1020.6
20181215172903 49 198 0.0 0.0 0.00 0.00 0.00 31 1020.6
20181215172403 49 198 0.0 0.0 0.00 0.00 0.00 32 1021.1
20181215171904 47 198 0.0 0.0 0.00 0.00 0.00 34 1021.1
20181215171403 46 198 0.0 0.0 0.00 0.00 0.00 36 1021.1
20181215170903 44 198 0.0 0.0 0.00 0.00 0.00 38 1021.3
20181215170404 43 198 0.0 0.0 0.00 0.00 0.00 41 1021.3
20181215165904 43 198 0.0 0.0 0.00 0.00 0.00 43 1021.3
20181215165404 42 198 0.0 0.0 0.00 0.00 0.00 45 1021.6
20181215164903 41 198 0.0 0.0 0.00 0.00 0.00 47 1021.6
20181215164404 41 198 0.0 0.0 0.00 0.00 0.00 45 1021.6
20181215163904 41 198 0.0 0.0 0.00 0.00 0.00 46 1022.2
20181215163403 40 198 0.0 0.0 0.00 0.00 0.00 46 1022.2
20181215162903 40 198 0.0 0.0 0.00 0.00 0.00 43 1022.2
20181215162404 40 198 0.0 0.0 0.00 0.00 0.00 45 1022.1
20181215161904 39 198 0.0 0.0 0.00 0.00 0.00 43 1022.1
20181215161403 39 198 0.0 0.0 0.00 0.00 0.00 42 1022.1
20181215160903 39 198 0.0 0.0 0.00 0.00 0.00 42 1023.1
20181215160404 38 198 0.0 0.0 0.00 0.00 0.00 42 1023.1
20181215155903 38 198 0.0 0.0 0.00 0.00 0.00 44 1023.1
20181215155404 37 198 0.0 0.0 0.00 0.00 0.00 44 1022.2
20181215154904 37 198 0.0 0.0 0.00 0.00 0.00 47 1022.2
20181215154403 38 198 0.0 0.0 0.00 0.00 0.00 43 1022.2
20181215153903 38 198 0.0 0.0 0.00 0.00 0.00 41 1022.7
20181215153404 37 198 0.0 0.0 0.00 0.00 0.00 41 1022.7
20181215152904 37 198 0.0 0.0 0.00 0.00 0.00 47 1022.7
20181215152404 37 198 0.0 0.0 0.00 0.00 0.00 45 1022.6
20181215151904 37 198 0.0 0.0 0.00 0.00 0.00 40 1022.6
20181215151404 37 198 0.0 0.0 0.00 0.00 0.00 42 1022.6
20181215150903 37 198 0.0 0.0 0.00 0.00 0.00 38 1022.6
20181215150404 36 198 0.0 0.0 0.00 0.00 0.00 40 1022.6
20181215145904 36 198 0.0 0.0 0.00 0.00 0.00 46 1022.6
20181215145404 36 198 0.0 0.0 0.00 0.00 0.00 45 1022.6
20181215144904 35 198 0.0 0.0 0.00 0.00 0.00 50 1022.6
20181215144404 35 198 0.0 0.0 0.00 0.00 0.00 48 1022.6
20181215143904 35 198 0.0 0.0 0.00 0.00 0.00 45 1022.0
20181215143404 36 198 0.0 0.0 0.00 0.00 0.00 47 1022.0
20181215142904 37 198 0.0 0.0 0.00 0.00 0.00 44 1022.0
20181215142404 37 198 0.0 0.0 0.00 0.00 0.00 43 1021.5
20181215141903 38 198 0.0 0.0 0.00 0.00 0.00 42 1021.5
20181215141404 39 198 0.0 2.0 0.00 0.00 0.00 41 1021.5
20181215140903 41 198 0.0 2.0 0.00 0.00 0.00 38 1021.7
20181215140403 42 198 0.0 3.0 0.00 0.00 0.00 28 1021.7
20181215135903 40 198 3.0 6.0 0.00 0.00 0.00 23 1021.7
20181215135403 37 240 0.0 0.0 0.00 0.00 0.00 35 1022.0
20181215134904 36 240 0.0 0.0 0.00 0.00 0.00 41 1022.0
20181215134403 36 240 0.0 0.0 0.00 0.00 0.00 40 1022.0
20181215133903 37 240 0.0 0.0 0.00 0.00 0.00 35 1020.9
20181215133403 39 240 0.0 0.0 0.00 0.00 0.00 34 1020.9
20181215132904 41 240 0.0 0.0 0.00 0.00 0.00 32 1020.9
20181215132403 41 240 0.0 0.0 0.00 0.00 0.00 23 1022.1
20181215131903 40 240 0.0 0.0 0.00 0.00 0.00 23 1022.1
20181215131403 39 240 0.0 0.0 0.00 0.00 0.00 30 1022.1
20181215130903 39 240 2.0 3.0 0.00 0.00 0.00 33 1020.0
20181215130403 40 240 0.0 0.0 0.00 0.00 0.00 36 1020.0
20181215125903 42 240 0.0 0.0 0.00 0.00 0.00 27 1020.0
20181215125403 43 240 1.0 3.0 0.00 0.00 0.00 19 1019.8
20181215124903 43 240 3.0 5.0 0.00 0.00 0.00 17 1019.8
20181215124403 43 242 0.0 0.0 0.00 0.00 0.00 17 1019.8
20181215123903 43 242 0.0 0.0 0.00 0.00 0.00 17 1020.2
20181215123403 43 242 0.0 0.0 0.00 0.00 0.00 17 1020.2
20181215122902 43 242 0.0 0.0 0.00 0.00 0.00 16 1020.2
20181215122403 43 242 0.0 0.0 0.00 0.00 0.00 17 1020.7
20181215121903 43 242 0.0 0.0 0.00 0.00 0.00 14 1020.7
20181215121403 42 242 0.0 1.0 0.00 0.00 0.00 13 1020.7
20181215120902 41 242 0.0 1.0 0.00 0.00 0.00 14 1020.7
20181215120403 41 242 0.0 0.0 0.00 0.00 0.00 19 1020.7
20181215115903 41 242 0.0 3.0 0.00 0.00 0.00 20 1020.7
20181215115403 42 242 0.0 0.0 0.00 0.00 0.00 23 1020.9
20181215114903 42 242 0.0 0.0 0.00 0.00 0.00 16 1020.9
20181215114403 42 242 0.0 0.0 0.00 0.00 0.00 15 1020.9
20181215113903 41 242 0.0 0.0 0.00 0.00 0.00 23 1021.4
20181215113403 41 242 0.0 0.0 0.00 0.00 0.00 22 1021.4
20181215112903 41 242 0.0 0.0 0.00 0.00 0.00 17 1021.4
20181215112403 40 242 0.0 0.0 0.00 0.00 0.00 23 1021.3
20181215111902 40 242 0.0 0.0 0.00 0.00 0.00 23 1021.3
20181215111403 41 242 0.0 0.0 0.00 0.00 0.00 25 1021.3
20181215110903 41 242 0.0 0.0 0.00 0.00 0.00 24 1020.8
20181215110403 41 242 0.0 2.0 0.00 0.00 0.00 25 1020.8
20181215105903 42 242 0.0 0.0 0.00 0.00 0.00 29 1020.8
20181215105403 42 242 0.0 3.0 0.00 0.00 0.00 26 1020.1
20181215104903 42 243 1.0 3.0 0.00 0.00 0.00 21 1020.1
20181215104403 42 243 1.0 5.0 0.00 0.00 0.00 22 1020.1
20181215103904 43 268 0.0 3.0 0.00 0.00 0.00 21 1019.9
20181215103403 43 267 1.0 3.0 0.00 0.00 0.00 22 1019.9
20181215102904 44 264 0.0 3.0 0.00 0.00 0.00 24 1019.9
20181215102403 44 262 2.0 7.0 0.00 0.00 0.00 14 1019.8
20181215101903 44 180 0.0 0.0 0.00 0.00 0.00 18 1019.8
20181215101404 44 180 0.0 3.0 0.00 0.00 0.00 16 1019.8
20181215100903 43 180 1.0 3.0 0.00 0.00 0.00 19 1019.6
20181215100403 43 179 0.0 0.0 0.00 0.00 0.00 23 1019.6
20181215095904 43 179 0.0 5.0 0.00 0.00 0.00 23 1019.6
20181215095403 43 179 0.0 0.0 0.00 0.00 0.00 26 1020.2
20181215094903 43 179 0.0 0.0 0.00 0.00 0.00 20 1020.2
20181215094404 42 179 0.0 0.0 0.00 0.00 0.00 18 1020.2
20181215093903 42 179 1.0 3.0 0.00 0.00 0.00 22 1020.7
20181215093403 41 179 2.0 3.0 0.00 0.00 0.00 24 1020.7
20181215092903 40 179 2.0 3.0 0.00 0.00 0.00 29 1020.7
20181215092404 41 179 0.0 0.0 0.00 0.00 0.00 36 1020.2
20181215091903 41 179 0.0 0.0 0.00 0.00 0.00 31 1020.2
20181215091403 41 179 0.0 0.0 0.00 0.00 0.00 29 1020.2
20181215090903 41 179 0.0 0.0 0.00 0.00 0.00 26 1019.6
20181215090404 42 179 0.0 0.0 0.00 0.00 0.00 26 1019.6
20181215085903 42 179 0.0 0.0 0.00 0.00 0.00 25 1019.6
20181215085404 43 179 0.0 1.0 0.00 0.00 0.00 25 1018.8
20181215084903 45 179 1.0 3.0 0.00 0.00 0.00 21 1018.8
20181215084403 46 179 0.0 1.0 0.00 0.00 0.00 18 1018.8
20181215083903 47 179 1.0 3.0 0.00 0.00 0.00 11 1019.0
20181215083404 47 179 1.0 5.0 0.00 0.00 0.00 9 1019.0
20181215082903 47 180 4.0 7.0 0.00 0.00 0.00 9 1019.0
20181215082404 47 159 3.0 9.0 0.00 0.00 0.00 9 1019.9
20181215081904 47 189 3.0 5.0 0.00 0.00 0.00 10 1019.9
20181215081403 45 189 0.0 0.0 0.00 0.00 0.00 13 1019.9
20181215080903 44 189 0.0 0.0 0.00 0.00 0.00 13 1020.3
20181215080403 44 189 0.0 0.0 0.00 0.00 0.00 25 1020.3
20181215075904 44 189 0.0 0.0 0.00 0.00 0.00 25 1020.3
20181215075404 44 189 0.0 0.0 0.00 0.00 0.00 15 1020.5
20181215074903 43 189 0.0 2.0 0.00 0.00 0.00 14 1020.5
20181215074403 43 189 0.0 3.0 0.00 0.00 0.00 25 1020.5